Location: Ehrke Reservoir
(40.0279°N, 99.6641°W)
Time: 13:25:05
(UTC+00:00)

CZ-4 R/B - Pass Details

Date: 20 January 2020
Orbit: 533 x 597 km, 97.7° (Epoch: 27 February)

Event Time Altitude Azimuth Distance (km) Brightness Sun altitude
Rises 01:20:49 0° 179° (S) 2,720 5.0 -18.7°
Reaches altitude 10° 01:22:58 10° 184° (S) 1,840 4.2 -19.1°
Maximum altitude 01:26:51 50° 260° (W) 728 2.3 -19.9°
Drops below altitude 10° 01:30:50 10° 337° (NNW) 1,893 4.2 -20.6°
Sets 01:33:04 0° 343° (NNW) 2,807 5.0 -21.0°
